カタログに戻る

COSMOS 2251 DEB

運用中LEO
NORAD 37295·DEBRIS·🇷🇺 Russia

打ち上げ Jun 16, 1993 から Plesetsk Cosmodrome

Loading…

次のパス (今後24時間)

TLE

最新Source: Space-Track

元期: Sep 14, 2026, 06:30 UTC

1 37295U 93036BJK 26257.27124023  .00001475  00000-0  26723-3 0  9990
2 37295  74.0034 109.7531 0045384 220.1197 139.6619 14.66639013863425

AllMySatでCOSMOS 2251 DEBをリアルタイム追跡

Download on the App Store